Location: Rounton
(54.4000°N, 1.3500°W)
Time: 14:05:04
(UTC+00:00)

Altair - Pass Details

Date: 01 December 2021
Orbit: 1501 x 1683 km, 47.2° (Epoch: 19 January)

Event Time Altitude Azimuth Distance (km) Brightness Sun altitude
Rises 20:40:29 0° 273° (W) 4,682 10.8 -41.4°
Reaches altitude 10° 20:43:40 10° 269° (W) 3,682 10.0 -41.8°
Enters shadow 20:49:57 40° 236° (SW) 2,080 8.2 -42.7°
Maximum altitude 20:52:21 48° 198° (SSW) 1,883 - -43.0°
Drops below altitude 10° 21:00:59 10° 128° (SE) 3,656 - -44.1°
Sets 21:04:07 0° 123° (ESE) 4,646 - -44.5°
